Theta_e
324 323 322 323 323 317 315 312 311 304 306 308 308 311 312 308 306 305 305 306 304 304 304 306 309 310 310 310 310 310 310 308 307 306 305 305 305 304
324 323 323 324 324 324 315 313 312 311 308 312 310 308 311 310 307 305 305 305 304 302 302 303 305 307 308 307 307 307 308 307 306 304 304 304 304 304
324 323 323 324 324 324 319 315 311 311 310 311 311 309 308 308 307 307 306 304 304 302 301 301 301 302 303 304 304 304 305 305 305 304 303 303 303 303
324 323 322 323 323 324 321 317 316 312 313 313 309 307 307 307 306 305 305 305 304 303 301 300 300 299 300 300 300 300 301 301 301 302 303 303 302 302
325 324 324 323 322 323 321 319 316 314 313 310 311 307 308 306 304 304 302 302 302 304 300 299 299 299 298 298 298 298 298 298 298 298 298 299 300 300
326 326 326 325 324 323 321 320 317 315 314 312 307 305 305 305 304 302 300 301 301 303 301 299 299 298 298 297 297 297 297 297 297 297 296 295 294 295
327 327 327 324 316 320 324 322 319 315 312 312 308 304 304 303 303 305 305 302 301 303 301 300 298 297 296 297 297 297 296 296 296 296 296 295 294 294
326 327 328 314 312 306 307 308 316 317 314 313 312 310 311 305 303 303 302 301 299 303 300 300 299 298 298 296 297 295 295 295 295 295 295 295 295 294
327 327 326 326 313 320 304 302 303 303 310 316 315 313 314 311 306 304 304 304 304 304 303 300 297 299 299 298 296 295 295 295 295 294 294 294 294 293
326 327 327 326 322 322 322 317 316 312 310 311 318 319 317 315 313 312 309 308 304 302 303 298 294 296 298 298 296 296 295 295 294 294 294 293 293 292
324 325 326 326 313 305 321 321 319 317 301 299 298 298 302 302 308 310 305 303 298 298 298 298 294 293 293 294 295 294 294 294 294 294 293 293 292 291
321 321 304 319 304 299 321 322 320 319 306 301 302 303 303 306 301 313 310 305 297 292 297 297 292 294 291 289 292 292 291 292 293 293 292 292 291 288
321 321 321 300 301 298 305 322 320 319 303 310 308 307 307 309 308 311 312 311 300 298 299 297 291 290 288 286 287 290 288 289 289 290 292 292 292 291
321 322 321 300 299 297 300 307 299 298 306 305 303 302 304 305 307 308 307 308 307 305 298 297 292 291 288 285 286 286 288 289 288 287 288 291 291 291
308 311 305 300 298 296 296 297 294 308 303 301 301 301 301 303 300 299 299 300 298 298 298 297 294 291 290 287 285 286 286 286 286 285 287 287 288 288
294 298 297 299 297 300 297 296 312 310 305 305 304 301 298 298 297 294 292 293 292 290 293 294 294 291 287 287 286 285 284 283 285 285 286 287 288 287
293 293 294 295 296 296 299 300 301 301 303 302 299 296 297 297 296 293 292 291 290 288 288 289 290 290 288 287 285 284 282 283 284 286 286 284 285 285
290 291 290 291 294 295 297 297 299 298 300 300 298 298 297 296 294 292 291 289 288 288 287 287 287 286 287 288 289 283 283 283 285 286 284 282 281 284
287 287 287 288 289 291 290 290 291 296 298 298 298 297 296 296 292 290 289 288 286 287 287 286 286 285 284 285 283 288 283 282 284 284 282 282 281 285
286 285 286 287 287 288 289 289 290 290 290 293 294 294 293 291 290 289 288 287 286 285 285 286 286 286 286 285 284 285 288 285 285 283 284 283 284 285
286 286 285 286 287 287 287 287 288 287 288 288 288 288 289 290 288 288 287 287 287 286 286 286 287 287 288 287 285 285 287 288 287 284 284 282 282 282
287 287 287 286 285 286 287 287 287 287 287 287 287 286 287 289 288 288 288 287 287 287 286 287 288 288 287 287 285 284 283 286 287 286 286 285 283 278
288 288 288 288 287 286 285 286 286 286 287 287 287 287 286 287 288 287 287 287 287 287 287 285 286 287 286 285 285 284 284 283 282 282 283 285 284 285
Wind_Speed
10 11 9 9 6 5 4 4 5 4 6 5 5 10 9 8 10 10 11 14 18 17 16 16 15 16 16 14 13 13 13 13 14 13 12 12 12 12
9 12 12 9 8 7 6 5 3 5 4 8 7 3 7 6 9 10 11 14 19 19 19 17 17 15 16 15 13 13 13 13 13 14 13 13 13 13
14 15 16 14 10 9 6 6 5 4 5 2 3 5 6 7 6 8 8 10 8 19 20 18 17 16 15 13 13 14 14 14 14 14 15 14 14 14
17 16 17 12 13 10 8 11 9 7 6 10 5 4 6 5 4 7 7 8 8 13 18 19 17 16 16 14 14 14 14 14 13 14 13 14 16 16
18 18 16 15 14 10 10 9 8 6 8 5 5 1 2 3 3 3 4 4 6 9 15 17 17 17 16 15 15 15 15 14 12 14 13 13 14 15
18 17 17 16 18 15 12 12 10 8 7 8 3 3 2 2 2 4 4 4 5 6 8 9 14 16 16 15 15 15 16 14 14 14 14 13 13 13
18 19 18 19 20 17 11 12 11 10 7 8 4 3 4 3 6 4 5 4 4 4 5 5 6 6 7 13 13 16 16 16 15 15 14 11 11 12
19 19 19 19 18 19 19 17 17 14 12 8 9 8 13 6 4 5 4 4 3 6 6 7 7 8 8 7 15 16 17 17 15 14 13 11 11 11
21 19 16 13 16 15 16 18 17 19 18 14 13 14 11 10 7 6 6 5 5 3 7 5 5 8 6 6 12 13 14 14 13 12 11 10 11 10
20 20 19 18 15 17 16 15 15 13 14 10 14 14 12 7 13 10 8 4 3 2 4 5 3 4 2 3 8 11 11 12 11 11 10 10 10 7
17 19 19 19 17 20 17 17 16 14 7 10 3 3 9 10 9 6 5 5 4 3 4 2 1 2 2 2 1 5 9 11 11 11 10 9 7 5
15 15 17 19 18 21 20 17 17 15 9 5 4 2 6 8 13 11 8 7 4 0 5 5 4 4 1 1 1 1 4 5 8 8 7 6 5 3
15 13 12 19 19 22 24 17 17 14 9 11 8 7 5 6 7 8 8 10 6 4 6 5 4 4 2 2 1 1 2 2 2 2 5 6 6 5
14 11 13 18 20 21 20 19 15 9 7 7 8 7 7 7 7 7 6 5 2 5 11 6 5 5 4 2 3 0 2 1 2 3 1 2 3 2
6 11 17 21 23 19 19 16 14 10 9 7 9 8 7 5 7 5 5 6 6 3 7 5 5 4 3 4 5 4 4 3 2 2 2 1 2 2
4 0 6 10 9 8 7 10 12 11 11 11 8 6 6 6 5 4 4 4 4 3 3 3 5 6 4 2 4 4 3 4 2 2 1 1 2 3
4 3 4 2 6 5 5 8 6 7 9 8 7 7 6 7 5 5 4 4 3 5 4 3 5 5 4 6 3 3 3 2 2 3 2 1 3 3
4 2 3 4 2 4 6 7 8 9 8 6 7 8 8 9 8 6 5 4 5 4 4 3 4 4 3 5 5 4 3 3 2 1 1 0 2 3
8 6 4 3 2 4 4 5 2 3 5 9 10 8 7 7 10 8 7 5 3 4 3 4 4 4 3 3 2 1 5 2 3 2 3 3 2 4
8 7 7 4 4 3 5 3 6 3 6 4 5 7 11 10 9 9 8 6 6 3 3 3 4 3 5 6 5 3 6 5 3 3 2 2 4 10
9 8 7 6 5 4 5 5 6 4 4 5 3 1 5 8 8 7 8 9 8 4 7 4 3 7 6 5 3 2 3 6 4 4 3 2 2 2
7 9 8 7 7 6 6 6 6 5 2 4 6 5 2 6 7 7 7 9 7 7 4 5 5 4 3 3 3 4 2 2 2 3 7 8 4 2
6 5 5 7 7 5 5 4 6 4 4 5 4 5 4 6 5 7 4 3 5 5 6 4 3 3 3 3 4 2 4 2 2 1 3 10 12 15
Wind_Direction
200 211 207 211 198 196 166 166 155 179 226 231 218 209 204 194 199 197 205 203 208 205 212 216 214 214 213 214 217 227 234 242 247 255 264 273 276 281
200 207 213 213 203 209 190 178 204 162 214 205 214 169 192 197 186 188 198 197 204 203 211 211 216 211 220 214 207 216 223 229 237 247 251 256 264 272
206 212 214 211 207 202 191 194 203 167 202 261 210 182 178 189 183 194 196 205 203 205 210 209 215 208 212 216 210 213 219 228 229 238 246 251 258 267
206 208 213 203 214 205 195 205 212 201 188 236 196 201 196 201 178 181 200 207 207 203 210 214 211 209 213 210 214 219 218 226 228 233 241 248 254 264
207 209 209 203 212 202 200 199 203 202 214 196 222 154 159 151 139 179 190 209 208 207 207 213 210 211 214 211 215 220 224 226 225 231 236 239 246 255
209 213 212 209 211 201 200 201 199 198 204 221 197 163 155 192 145 163 210 202 207 209 201 204 206 218 215 219 219 219 226 227 225 231 234 235 241 248
211 213 215 212 212 203 192 204 196 198 194 210 194 158 183 177 196 177 206 161 219 185 199 204 196 204 215 223 230 222 223 228 229 233 236 234 236 242
208 211 212 205 208 203 198 197 196 197 200 195 214 213 221 201 163 181 146 140 238 191 179 228 183 212 204 195 212 214 215 222 225 230 234 233 237 239
209 210 215 212 205 206 212 208 202 204 200 197 211 214 224 206 166 172 188 188 201 157 192 239 176 230 212 206 202 205 211 220 218 219 221 220 228 231
209 211 214 212 202 204 206 213 216 215 216 207 212 220 219 195 198 205 203 208 60 134 152 205 153 230 170 212 186 202 212 220 211 208 209 210 217 223
210 210 212 214 203 192 203 211 217 223 220 217 208 213 198 196 185 141 167 146 205 234 192 151 125 86 52 17 199 206 208 218 202 195 196 196 203 216
217 214 207 208 193 186 203 210 218 222 195 164 185 185 192 200 194 189 177 198 150 163 201 156 156 148 344 229 276 102 110 167 173 172 175 191 191 180
221 214 212 207 196 184 196 210 215 218 191 195 202 202 181 178 192 206 188 199 166 203 168 132 151 151 118 154 135 107 123 132 133 133 154 154 158 171
252 217 209 193 200 192 190 203 192 161 162 173 171 184 193 199 206 201 200 200 202 188 162 157 147 162 144 124 143 122 84 130 129 154 142 57 4 94
207 265 221 198 196 200 204 189 168 169 164 178 192 192 192 172 134 115 102 109 90 89 157 173 133 128 131 142 153 159 140 196 160 149 149 216 220 213
173 60 262 187 195 199 179 186 194 183 180 188 186 157 136 142 168 140 141 149 116 96 65 149 146 146 133 117 123 149 157 154 136 145 192 255 255 250
130 97 94 28 143 154 174 186 180 167 176 169 158 153 158 157 162 151 128 134 133 147 146 106 90 90 80 132 111 129 147 126 151 149 133 289 285 279
331 119 133 87 173 180 195 196 192 186 167 179 155 163 168 166 156 152 143 146 143 151 135 143 133 96 70 35 64 125 118 136 147 135 99 124 283 282
43 39 72 37 157 145 112 82 25 292 174 162 166 159 158 161 150 159 153 147 127 130 127 133 139 116 110 158 287 85 134 144 139 164 181 196 228 266
33 23 33 30 9 43 87 80 93 249 77 353 149 170 149 154 157 162 159 154 138 123 126 141 150 152 146 168 156 171 144 138 159 166 218 220 247 271
18 21 12 8 28 31 59 69 69 67 85 127 81 8 125 142 146 147 139 136 131 124 139 131 140 113 100 84 75 116 180 209 181 178 183 160 251 325
30 28 18 7 9 14 52 61 57 48 61 86 86 91 30 106 129 124 134 142 140 140 119 125 132 119 92 126 137 143 181 186 217 249 212 180 170 230
15 358 31 38 27 13 15 57 97 90 60 68 64 83 96 102 115 110 93 103 137 134 139 136 120 107 118 112 131 143 159 179 210 260 280 220 220 236